| time (UTC) | temp F | wind direction | speed MPH | gust MPH | rain 1hr in | rain 24hr in | rain mn in | humidity % | barometer mb |
| 20260831053013 | 74 | 134 | 0.0 | 1.0 | 0.00 | 0.00 | 0.00 | 87 | 1017.6 |
| 20260831051513 | 74 | 137 | 0.0 | 4.0 | 0.00 | 0.00 | 0.00 | 87 | 1017.4 |
| 20260831050008 | 74 | 95 | 1.0 | 5.0 | 0.00 | 0.00 | 0.00 | 87 | 1017.3 |
| 20260831044506 | 74 | 129 | 0.0 | 5.0 | 0.00 | 0.00 | 0.00 | 87 | 1017.2 |
| 20260831043002 | 74 | 122 | 2.0 | 4.0 | 0.00 | 0.00 | 0.00 | 86 | 1017.2 |
| 20260831041614 | 74 | 115 | 2.0 | 4.0 | 0.00 | 0.00 | 0.00 | 86 | 1017.3 |
| 20260831040057 | 75 | 105 | 2.0 | 4.0 | 0.00 | 0.00 | 0.00 | 86 | 1017.2 |
| 20260831034554 | 75 | 94 | 1.0 | 3.0 | 0.00 | 0.00 | 0.00 | 86 | 1017.2 |
| 20260831033052 | 75 | 132 | 2.0 | 5.0 | 0.00 | 0.00 | 0.00 | 86 | 1017.0 |
| 20260831031552 | 75 | 110 | 1.0 | 4.0 | 0.00 | 0.00 | 0.00 | 86 | 1017.1 |
| 20260831030052 | 76 | 129 | 1.0 | 4.0 | 0.00 | 0.00 | 0.00 | 85 | 1017.4 |
| 20260831024548 | 76 | 153 | 1.0 | 5.0 | 0.00 | 0.00 | 0.00 | 84 | 1017.3 |
| 20260831023046 | 76 | 128 | 2.0 | 5.0 | 0.00 | 0.00 | 0.00 | 84 | 1017.3 |
| 20260831021543 | 76 | 122 | 2.0 | 5.0 | 0.00 | 0.00 | 0.00 | 84 | 1017.3 |
| 20260831020042 | 76 | 135 | 2.0 | 4.0 | 0.00 | 0.00 | 0.00 | 83 | 1017.1 |
| 20260831014540 | 76 | 150 | 1.0 | 5.0 | 0.00 | 0.00 | 0.00 | 83 | 1017.2 |
| 20260831013040 | 76 | 143 | 2.0 | 4.0 | 0.00 | 0.00 | 0.00 | 82 | 1017.0 |
| 20260831011539 | 77 | 122 | 2.0 | 4.0 | 0.00 | 0.00 | 0.00 | 82 | 1016.9 |
| 20260831010035 | 77 | 149 | 1.0 | 2.0 | 0.00 | 0.00 | 0.00 | 81 | 1016.8 |
| 20260831004535 | 78 | 151 | 0.0 | 1.0 | 0.00 | 0.00 | 0.00 | 79 | 1016.8 |
| 20260831003132 | 78 | 153 | 0.0 | 3.0 | 0.00 | 0.00 | 0.00 | 78 | 1016.6 |
| 20260831001527 | 79 | 164 | 0.0 | 2.0 | 0.00 | 0.00 | 0.00 | 77 | 1016.6 |
| 20260831000025 | 79 | 200 | 0.0 | 1.0 | 0.00 | 0.00 | 0.00 | 76 | 1016.9 |
| 20260830234523 | 80 | 199 | 0.0 | 2.0 | 0.00 | 0.00 | 0.00 | 74 | 1017.1 |
| 20260830233022 | 80 | 221 | 0.0 | 4.0 | 0.00 | 0.00 | 0.00 | 73 | 1017.2 |
| 20260830231519 | 81 | 228 | 2.0 | 4.0 | 0.00 | 0.00 | 0.00 | 71 | 1017.2 |
| 20260830230017 | 81 | 235 | 1.0 | 5.0 | 0.00 | 0.00 | 0.00 | 71 | 1017.4 |
| 20260830224515 | 82 | 245 | 0.0 | 6.0 | 0.00 | 0.00 | 0.00 | 71 | 1017.5 |
| 20260830223012 | 82 | 263 | 2.0 | 6.0 | 0.00 | 0.00 | 0.00 | 70 | 1017.6 |
| 20260830221512 | 82 | 257 | 3.0 | 9.0 | 0.00 | 0.00 | 0.00 | 69 | 1017.5 |
| 20260830220009 | 82 | 227 | 2.0 | 9.0 | 0.00 | 0.00 | 0.00 | 69 | 1017.4 |
| 20260830214506 | 82 | 223 | 4.0 | 9.0 | 0.00 | 0.00 | 0.00 | 68 | 1017.2 |
| 20260830213005 | 82 | 212 | 1.0 | 8.0 | 0.00 | 0.00 | 0.00 | 70 | 1017.1 |
| 20260830211501 | 83 | 150 | 7.0 | 13.0 | 0.00 | 0.00 | 0.00 | 67 | 1017.0 |
| 20260830210106 | 83 | 269 | 5.0 | 13.0 | 0.00 | 0.00 | 0.00 | 64 | 1016.9 |
| 20260830204558 | 83 | 252 | 7.0 | 12.0 | 0.00 | 0.00 | 0.00 | 64 | 1016.9 |
| 20260830203056 | 82 | 248 | 7.0 | 16.0 | 0.00 | 0.00 | 0.00 | 66 | 1017.0 |
| 20260830201550 | 83 | 233 | 6.0 | 12.0 | 0.00 | 0.00 | 0.00 | 68 | 1017.5 |
| 20260830200050 | 82 | 250 | 6.0 | 14.0 | 0.00 | 0.00 | 0.00 | 71 | 1017.4 |
| 20260830194545 | 82 | 244 | 5.0 | 13.0 | 0.00 | 0.00 | 0.00 | 70 | 1017.2 |
| 20260830193046 | 82 | 183 | 9.0 | 13.0 | 0.00 | 0.00 | 0.00 | 69 | 1017.1 |
| 20260830191538 | 81 | 207 | 6.0 | 13.0 | 0.00 | 0.00 | 0.00 | 71 | 1017.2 |
| 20260830190034 | 81 | 137 | 4.0 | 11.0 | 0.00 | 0.00 | 0.00 | 72 | 1017.1 |
| 20260830184528 | 79 | 136 | 7.0 | 16.0 | 0.00 | 0.00 | 0.00 | 76 | 1017.0 |
| 20260830183022 | 78 | 137 | 7.0 | 12.0 | 0.00 | 0.00 | 0.00 | 78 | 1017.6 |
| 20260830181516 | 76 | 94 | 3.0 | 7.0 | 0.00 | 0.00 | 0.00 | 81 | 1018.0 |
| 20260830180015 | 75 | 131 | 1.0 | 9.0 | 0.00 | 0.00 | 0.00 | 83 | 1018.5 |
| 20260830174509 | 73 | 183 | 4.0 | 14.0 | 0.00 | 0.00 | 0.00 | 85 | 1018.6 |
| 20260830173005 | 73 | 128 | 7.0 | 13.0 | 0.00 | 0.00 | 0.00 | 86 | 1018.6 |
| 20260830171503 | 74 | 82 | 3.0 | 6.0 | 0.00 | 0.00 | 0.00 | 83 | 1019.7 |
| 20260830170059 | 75 | 116 | 0.0 | 1.0 | 0.00 | 0.00 | 0.00 | 81 | 1020.3 |
| 20260830164556 | 75 | 150 | 0.0 | 1.0 | 0.00 | 0.00 | 0.00 | 79 | 1020.5 |
| 20260830163049 | 75 | 216 | 1.0 | 2.0 | 0.00 | 0.00 | 0.00 | 78 | 1020.5 |
| 20260830161544 | 75 | 220 | 0.0 | 1.0 | 0.00 | 0.00 | 0.00 | 77 | 1020.3 |
| 20260830160039 | 73 | 220 | 0.0 | 2.0 | 0.00 | 0.00 | 0.00 | 80 | 1020.4 |
| 20260830154536 | 73 | 194 | 0.0 | 1.0 | 0.00 | 0.00 | 0.00 | 80 | 1020.4 |
| 20260830153032 | 73 | 345 | 0.0 | 1.0 | 0.00 | 0.00 | 0.00 | 81 | 1020.5 |
| 20260830151530 | 72 | 337 | 0.0 | 5.0 | 0.00 | 0.00 | 0.00 | 82 | 1020.4 |
| 20260830150036 | 72 | 322 | 3.0 | 5.0 | 0.00 | 0.00 | 0.00 | 83 | 1020.5 |
| 20260830144530 | 72 | 307 | 1.0 | 3.0 | 0.00 | 0.00 | 0.00 | 81 | 1020.0 |
| 20260830143022 | 73 | 224 | 0.0 | 3.0 | 0.00 | 0.00 | 0.00 | 80 | 1019.5 |
| 20260830141535 | 72 | 250 | 0.0 | 2.0 | 0.00 | 0.00 | 0.00 | 80 | 1019.2 |
| 20260830140017 | 72 | 240 | 0.0 | 4.0 | 0.00 | 0.00 | 0.00 | 81 | 1018.8 |
| 20260830134542 | 72 | 226 | 0.0 | 6.0 | 0.00 | 0.00 | 0.00 | 80 | 1018.7 |
| 20260830133056 | 72 | 212 | 1.0 | 4.0 | 0.00 | 0.00 | 0.00 | 80 | 1018.6 |
| 20260830131536 | 71 | 217 | 0.0 | 4.0 | 0.00 | 0.00 | 0.00 | 81 | 1018.6 |
| 20260830130034 | 71 | 207 | 0.0 | 5.0 | 0.00 | 0.00 | 0.00 | 80 | 1018.4 |
| 20260830124530 | 71 | 155 | 4.0 | 7.0 | 0.00 | 0.00 | 0.00 | 80 | 1018.1 |
| 20260830123028 | 70 | 164 | 1.0 | 9.0 | 0.00 | 0.00 | 0.00 | 81 | 1017.9 |
| 20260830121523 | 70 | 142 | 3.0 | 8.0 | 0.00 | 0.00 | 0.00 | 81 | 1018.0 |
| 20260830120021 | 70 | 165 | 1.0 | 6.0 | 0.00 | 0.00 | 0.00 | 82 | 1018.0 |
| 20260830114533 | 70 | 150 | 3.0 | 6.0 | 0.00 | 0.00 | 0.00 | 82 | 1018.3 |
| 20260830113016 | 70 | 127 | 2.0 | 5.0 | 0.00 | 0.00 | 0.00 | 82 | 1018.3 |
| 20260830111514 | 70 | 136 | 2.0 | 6.0 | 0.00 | 0.00 | 0.00 | 82 | 1018.3 |
| 20260830110013 | 70 | 143 | 2.0 | 6.0 | 0.00 | 0.00 | 0.00 | 82 | 1018.3 |
| 20260830104511 | 69 | 164 | 1.0 | 4.0 | 0.00 | 0.00 | 0.00 | 82 | 1018.7 |
| 20260830103009 | 70 | 124 | 1.0 | 4.0 | 0.00 | 0.00 | 0.00 | 81 | 1018.7 |
| 20260830101508 | 70 | 171 | 0.0 | 3.0 | 0.00 | 0.00 | 0.00 | 81 | 1018.8 |
| 20260830094503 | 69 | 165 | 0.0 | 4.0 | 0.00 | 0.00 | 0.00 | 82 | 1018.7 |
| 20260830093059 | 69 | 214 | 1.0 | 5.0 | 0.00 | 0.00 | 0.00 | 82 | 1018.6 |
| 20260830091557 | 69 | 170 | 2.0 | 5.0 | 0.00 | 0.00 | 0.00 | 82 | 1018.6 |
| 20260830090108 | 69 | 162 | 2.0 | 5.0 | 0.00 | 0.00 | 0.00 | 82 | 1018.4 |
| 20260830084552 | 69 | 132 | 1.0 | 4.0 | 0.00 | 0.00 | 0.00 | 82 | 1018.3 |
| 20260830083113 | 69 | 141 | 2.0 | 5.0 | 0.00 | 0.00 | 0.00 | 83 | 1018.4 |
| 20260830081550 | 69 | 146 | 2.0 | 6.0 | 0.00 | 0.00 | 0.00 | 84 | 1018.4 |
| 20260830080046 | 68 | 134 | 1.0 | 3.0 | 0.00 | 0.00 | 0.00 | 85 | 1018.5 |
| 20260830074550 | 68 | 165 | 1.0 | 5.0 | 0.00 | 0.00 | 0.00 | 85 | 1018.4 |
| 20260830073103 | 68 | 122 | 1.0 | 2.0 | 0.00 | 0.00 | 0.00 | 86 | 1018.5 |
| 20260830071543 | 68 | 150 | 1.0 | 3.0 | 0.00 | 0.00 | 0.00 | 86 | 1018.5 |
| 20260830070036 | 68 | 135 | 1.0 | 3.0 | 0.00 | 0.00 | 0.00 | 87 | 1018.8 |
| 20260830064535 | 69 | 151 | 1.0 | 3.0 | 0.00 | 0.00 | 0.00 | 87 | 1018.6 |
| 20260830063030 | 69 | 142 | 1.0 | 4.0 | 0.00 | 0.00 | 0.00 | 86 | 1018.8 |
| 20260830061528 | 70 | 139 | 1.0 | 4.0 | 0.00 | 0.00 | 0.00 | 86 | 1018.9 |
| 20260830060026 | 70 | 172 | 0.0 | 2.0 | 0.00 | 0.00 | 0.00 | 86 | 1019.2 |
| 20260830054524 | 70 | 145 | 0.0 | 3.0 | 0.00 | 0.00 | 0.00 | 86 | 1019.2 |